Time,TemperatureF,DewpointF,PressureIn,WindDirection,WindDirectionDegrees,WindSpeedMPH,WindSpeedGustMPH,Humidity,HourlyPrecipIn,Conditions,Clouds,dailyrainin,SoftwareType,DateUTC
2013-07-10 00:00:00,53.0,-99.9,30.07,NNE,24,5.0,6.0,-999,-99.99,,,-99.99,,2013-07-10 04:00:00,
2013-07-10 00:01:00,52.0,-99.9,30.06,NE,37,4.0,4.0,-999,-99.99,,,-99.99,,2013-07-10 04:01:00,
2013-07-10 00:11:00,52.0,-99.9,30.06,NE,37,4.0,4.0,-999,-99.99,,,-99.99,,2013-07-10 04:11:00,
2013-07-10 00:22:00,52.0,-99.9,30.06,NE,37,4.0,4.0,-999,-99.99,,,-99.99,,2013-07-10 04:22:00,
2013-07-10 00:43:00,53.0,-99.9,30.07,NNE,24,5.0,6.0,-999,-99.99,,,-99.99,,2013-07-10 04:43:00,
2013-07-10 00:52:00,53.0,-99.9,30.07,NNE,24,5.0,6.0,-999,-99.99,,,-99.99,,2013-07-10 04:52:00,
2013-07-10 01:00:00,53.0,-99.9,30.07,NNE,12,7.0,8.0,-999,-99.99,,,-99.99,,2013-07-10 05:00:00,
2013-07-10 01:53:00,53.0,-99.9,30.07,NNE,12,7.0,8.0,-999,-99.99,,,-99.99,,2013-07-10 05:53:00,
2013-07-10 02:42:00,53.0,-99.9,30.06,NE,48,7.0,9.0,-999,-99.99,,,-99.99,,2013-07-10 06:42:00,
2013-07-10 02:52:00,53.0,-99.9,30.06,NE,48,7.0,9.0,-999,-99.99,,,-99.99,,2013-07-10 06:52:00,
2013-07-10 03:00:00,53.0,-99.9,30.05,NE,43,7.0,8.0,-999,-99.99,,,-99.99,,2013-07-10 07:00:00,
2013-07-10 03:01:00,53.0,-99.9,30.06,NE,48,7.0,9.0,-999,-99.99,,,-99.99,,2013-07-10 07:01:00,
2013-07-10 03:43:00,53.0,-99.9,30.05,NE,43,7.0,8.0,-999,-99.99,,,-99.99,,2013-07-10 07:43:00,
2013-07-10 03:53:00,53.0,-99.9,30.05,NE,43,7.0,8.0,-999,-99.99,,,-99.99,,2013-07-10 07:53:00,
2013-07-10 04:00:00,52.0,-99.9,30.03,ENE,60,9.0,10.0,-999,-99.99,,,-99.99,,2013-07-10 08:00:00,
2013-07-10 04:43:00,52.0,-99.9,30.03,ENE,60,9.0,10.0,-999,-99.99,,,-99.99,,2013-07-10 08:43:00,
2013-07-10 04:53:00,52.0,-99.9,30.03,ENE,60,9.0,10.0,-999,-99.99,,,-99.99,,2013-07-10 08:53:00,
2013-07-10 05:00:00,52.0,-99.9,30.04,ENE,63,7.0,8.0,-999,-99.99,,,-99.99,,2013-07-10 09:00:00,
2013-07-10 05:53:00,52.0,-99.9,30.04,ENE,63,7.0,8.0,-999,-99.99,,,-99.99,,2013-07-10 09:53:00,
2013-07-10 06:00:00,-999.0,-99.9,30.04,NNE,25,7.0,7.0,-999,-99.99,,,-99.99,,2013-07-10 10:00:00,
2013-07-10 06:51:00,-999.0,-99.9,30.04,NNE,25,7.0,7.0,-999,-99.99,,,-99.99,,2013-07-10 10:51:00,
2013-07-10 07:00:00,52.0,-99.9,30.05,NE,40,7.0,8.0,-999,-99.99,,,-99.99,,2013-07-10 11:00:00,
2013-07-10 07:43:00,52.0,-99.9,30.05,NE,40,7.0,8.0,-999,-99.99,,,-99.99,,2013-07-10 11:43:00,
2013-07-10 07:52:00,52.0,-99.9,30.05,NE,40,7.0,8.0,-999,-99.99,,,-99.99,,2013-07-10 11:52:00,
2013-07-10 08:00:00,51.0,-99.9,30.05,ENE,58,5.0,7.0,-999,-99.99,,,-99.99,,2013-07-10 12:00:00,
2013-07-10 09:00:00,52.0,-99.9,30.03,ENE,67,8.0,9.0,-999,-99.99,,,-99.99,,2013-07-10 13:00:00,
2013-07-10 09:43:00,52.0,-99.9,30.03,ENE,67,8.0,9.0,-999,-99.99,,,-99.99,,2013-07-10 13:43:00,
2013-07-10 09:52:00,52.0,-99.9,30.03,ENE,67,8.0,9.0,-999,-99.99,,,-99.99,,2013-07-10 13:52:00,
2013-07-10 10:00:00,53.0,-99.9,30.01,ENE,68,6.0,8.0,-999,-99.99,,,-99.99,,2013-07-10 14:00:00,
2013-07-10 11:43:00,54.0,-99.9,30.01,NE,53,4.0,5.0,-999,-99.99,,,-99.99,,2013-07-10 15:43:00,
2013-07-10 11:52:00,54.0,-99.9,30.01,NE,53,4.0,5.0,-999,-99.99,,,-99.99,,2013-07-10 15:52:00,
2013-07-10 12:02:00,54.0,-99.9,30.02,NE,53,4.0,5.0,-999,-99.99,,,-99.99,,2013-07-10 16:02:00,
2013-07-10 12:44:00,55.0,-99.9,29.98,ENE,77,5.0,6.0,-999,-99.99,,,-99.99,,2013-07-10 16:44:00,
2013-07-10 12:53:00,55.0,-99.9,29.98,ENE,77,5.0,6.0,-999,-99.99,,,-99.99,,2013-07-10 16:53:00,
2013-07-10 13:00:00,56.0,-99.9,29.96,ESE,112,5.0,6.0,-999,-99.99,,,-99.99,,2013-07-10 17:00:00,
2013-07-10 13:43:00,56.0,-99.9,29.96,ESE,112,5.0,6.0,-999,-99.99,,,-99.99,,2013-07-10 17:43:00,
2013-07-10 13:53:00,56.0,-99.9,29.96,ESE,112,5.0,6.0,-999,-99.99,,,-99.99,,2013-07-10 17:53:00,
2013-07-10 14:00:00,57.0,-99.9,29.96,ESE,115,1.0,2.0,-999,-99.99,,,-99.99,,2013-07-10 18:00:00,
2013-07-10 14:53:00,57.0,-99.9,29.96,ESE,115,1.0,2.0,-999,-99.99,,,-99.99,,2013-07-10 18:53:00,
2013-07-10 15:00:00,56.0,-99.9,29.96,NE,50,4.0,5.0,-999,-99.99,,,-99.99,,2013-07-10 19:00:00,
2013-07-10 15:42:00,56.0,-99.9,29.96,NE,50,4.0,5.0,-999,-99.99,,,-99.99,,2013-07-10 19:42:00,
2013-07-10 15:53:00,56.0,-99.9,29.96,NE,50,4.0,5.0,-999,-99.99,,,-99.99,,2013-07-10 19:53:00,
2013-07-10 16:00:00,55.0,-99.9,29.92,ENE,74,8.0,9.0,-999,-99.99,,,-99.99,,2013-07-10 20:00:00,
2013-07-10 16:43:00,55.0,-99.9,29.92,ENE,74,8.0,9.0,-999,-99.99,,,-99.99,,2013-07-10 20:43:00,
2013-07-10 16:52:00,55.0,-99.9,29.92,ENE,74,8.0,9.0,-999,-99.99,,,-99.99,,2013-07-10 20:52:00,
2013-07-10 17:00:00,55.0,-99.9,29.90,East,82,9.0,9.0,-999,-99.99,,,-99.99,,2013-07-10 21:00:00,
2013-07-10 17:42:00,55.0,-99.9,29.90,East,82,9.0,9.0,-999,-99.99,,,-99.99,,2013-07-10 21:42:00,
2013-07-10 17:52:00,55.0,-99.9,29.90,East,82,9.0,9.0,-999,-99.99,,,-99.99,,2013-07-10 21:52:00,
2013-07-10 19:00:00,56.0,-99.9,29.86,ESE,116,10.0,11.0,-999,-99.99,,,-99.99,,2013-07-10 23:00:00,
2013-07-10 20:00:00,56.0,-99.9,29.85,SSE,149,10.0,11.0,-999,-99.99,,,-99.99,,2013-07-11 00:00:00,
2013-07-10 20:43:00,56.0,-99.9,29.85,SSE,149,10.0,11.0,-999,-99.99,,,-99.99,,2013-07-11 00:43:00,
2013-07-10 20:52:00,56.0,-99.9,29.85,SSE,149,10.0,11.0,-999,-99.99,,,-99.99,,2013-07-11 00:52:00,
2013-07-10 21:43:00,56.0,-99.9,29.85,SSE,153,9.0,10.0,-999,-99.99,,,-99.99,,2013-07-11 01:43:00,
2013-07-10 21:52:00,56.0,-99.9,29.85,SSE,153,9.0,10.0,-999,-99.99,,,-99.99,,2013-07-11 01:52:00,
2013-07-10 22:00:00,55.0,-99.9,29.84,SSE,160,9.0,10.0,-999,-99.99,,,-99.99,,2013-07-11 02:00:00,
2013-07-10 22:44:00,55.0,-99.9,29.84,SSE,160,9.0,10.0,-999,-99.99,,,-99.99,,2013-07-11 02:44:00,
2013-07-10 22:53:00,55.0,-99.9,29.84,SSE,160,9.0,10.0,-999,-99.99,,,-99.99,,2013-07-11 02:53:00,
2013-07-10 23:00:00,56.0,-99.9,29.81,SSE,159,12.0,13.0,-999,-99.99,,,-99.99,,2013-07-11 03:00:00,
2013-07-10 23:53:00,56.0,-99.9,29.81,SSE,159,12.0,13.0,-999,-99.99,,,-99.99,,2013-07-11 03:53:00,